| time (UTC) | temp F | wind direction | speed MPH | gust MPH | rain 1hr in | rain 24hr in | rain mn in | humidity % | barometer mb |
| 20260508093002 | 59 | 327 | 4.0 | 11.0 | 0.00 | 0.00 | 0.00 | 69 | 1014.7 |
| 20260508091605 | 58 | 355 | 5.0 | 10.0 | 0.00 | 0.00 | 0.00 | 69 | 1014.7 |
| 20260508090004 | 56 | 360 | 4.0 | 9.0 | 0.00 | 0.00 | 0.00 | 72 | 1014.8 |
| 20260508084602 | 56 | 340 | 5.0 | 8.0 | 0.00 | 0.00 | 0.00 | 72 | 1014.9 |
| 20260508083102 | 54 | 350 | 2.0 | 6.0 | 0.00 | 0.00 | 0.00 | 78 | 1014.9 |
| 20260508081506 | 52 | 360 | 2.0 | 5.0 | 0.00 | 0.00 | 0.00 | 79 | 1014.9 |
| 20260508074503 | 51 | 321 | 1.0 | 4.0 | 0.00 | 0.00 | 0.00 | 79 | 1014.9 |
| 20260508073101 | 50 | 322 | 1.0 | 4.0 | 0.00 | 0.00 | 0.00 | 80 | 1015.1 |
| 20260508071503 | 49 | 336 | 3.0 | 5.0 | 0.00 | 0.00 | 0.00 | 81 | 1015.1 |
| 20260508070104 | 49 | 360 | 2.0 | 4.0 | 0.00 | 0.00 | 0.00 | 83 | 1015.2 |
| 20260508064505 | 48 | 360 | 0.0 | 0.0 | 0.00 | 0.00 | 0.00 | 85 | 1015.3 |
| 20260508063122 | 45 | 146 | 0.0 | 0.0 | 0.00 | 0.00 | 0.00 | 90 | 1015.3 |
| 20260508061502 | 43 | 360 | 0.0 | 0.0 | 0.00 | 0.00 | 0.00 | 91 | 1015.1 |
| 20260508060106 | 42 | 360 | 0.0 | 0.0 | 0.00 | 0.00 | 0.00 | 92 | 1015.2 |
| 20260508054506 | 41 | 360 | 0.0 | 0.0 | 0.00 | 0.00 | 0.00 | 92 | 1015.1 |
| 20260508053103 | 41 | 360 | 0.0 | 0.0 | 0.00 | 0.00 | 0.00 | 93 | 1015.1 |
| 20260508051502 | 40 | 144 | 0.0 | 0.0 | 0.00 | 0.00 | 0.00 | 93 | 1015.1 |
| 20260508044502 | 39 | 140 | 0.0 | 0.0 | 0.00 | 0.00 | 0.00 | 93 | 1014.8 |
| 20260508043105 | 39 | 140 | 0.0 | 0.0 | 0.00 | 0.00 | 0.00 | 93 | 1014.7 |
| 20260508041502 | 39 | 140 | 0.0 | 0.0 | 0.00 | 0.00 | 0.00 | 93 | 1014.6 |
| 20260508040104 | 39 | 140 | 0.0 | 0.0 | 0.00 | 0.00 | 0.00 | 93 | 1014.5 |
| 20260508034503 | 39 | 140 | 0.0 | 0.0 | 0.00 | 0.00 | 0.00 | 93 | 1014.4 |
| 20260508033102 | 40 | 140 | 0.0 | 0.0 | 0.00 | 0.00 | 0.00 | 93 | 1014.5 |
| 20260508031503 | 40 | 140 | 0.0 | 0.0 | 0.00 | 0.00 | 0.00 | 93 | 1014.5 |
| 20260508030104 | 40 | 140 | 0.0 | 3.0 | 0.00 | 0.00 | 0.00 | 93 | 1014.5 |
| 20260508024502 | 40 | 141 | 0.0 | 3.0 | 0.00 | 0.00 | 0.00 | 93 | 1014.4 |
| 20260508023102 | 40 | 160 | 2.0 | 3.0 | 0.00 | 0.00 | 0.00 | 93 | 1014.3 |
| 20260508021503 | 39 | 128 | 2.0 | 4.0 | 0.00 | 0.00 | 0.00 | 92 | 1014.3 |
| 20260508020106 | 39 | 145 | 2.0 | 4.0 | 0.00 | 0.00 | 0.00 | 92 | 1014.2 |
| 20260508014602 | 40 | 154 | 0.0 | 0.0 | 0.00 | 0.00 | 0.00 | 92 | 1014.4 |
| 20260508013002 | 40 | 152 | 0.0 | 0.0 | 0.00 | 0.00 | 0.00 | 92 | 1014.3 |
| 20260508011602 | 40 | 157 | 0.0 | 0.0 | 0.00 | 0.00 | 0.00 | 91 | 1014.3 |
| 20260508010002 | 41 | 157 | 0.0 | 0.0 | 0.00 | 0.00 | 0.00 | 91 | 1014.4 |
| 20260508004604 | 41 | 157 | 0.0 | 0.0 | 0.00 | 0.00 | 0.00 | 91 | 1014.5 |
| 20260508003002 | 41 | 157 | 0.0 | 0.0 | 0.00 | 0.00 | 0.00 | 91 | 1014.5 |
| 20260508001606 | 42 | 157 | 0.0 | 0.0 | 0.00 | 0.00 | 0.00 | 91 | 1014.6 |
| 20260508000003 | 42 | 157 | 0.0 | 0.0 | 0.00 | 0.00 | 0.00 | 91 | 1014.7 |
| 20260507234603 | 42 | 157 | 0.0 | 0.0 | 0.00 | 0.00 | 0.00 | 90 | 1014.7 |
| 20260507233003 | 42 | 157 | 0.0 | 0.0 | 0.00 | 0.00 | 0.00 | 90 | 1014.8 |
| 20260507231604 | 43 | 157 | 0.0 | 0.0 | 0.00 | 0.00 | 0.00 | 89 | 1014.9 |
| 20260507230004 | 44 | 157 | 0.0 | 0.0 | 0.00 | 0.00 | 0.00 | 89 | 1015.0 |
| 20260507224615 | 44 | 157 | 0.0 | 0.0 | 0.00 | 0.00 | 0.00 | 89 | 1015.0 |
| 20260507223003 | 45 | 157 | 0.0 | 0.0 | 0.00 | 0.00 | 0.00 | 89 | 1015.1 |
| 20260507221603 | 45 | 157 | 0.0 | 0.0 | 0.00 | 0.00 | 0.00 | 89 | 1015.1 |
| 20260507220003 | 46 | 157 | 0.0 | 0.0 | 0.00 | 0.00 | 0.00 | 88 | 1015.2 |
| 20260507214608 | 46 | 157 | 0.0 | 0.0 | 0.00 | 0.00 | 0.00 | 88 | 1015.1 |
| 20260507213003 | 46 | 157 | 0.0 | 0.0 | 0.00 | 0.00 | 0.00 | 87 | 1014.9 |
| 20260507211503 | 47 | 157 | 0.0 | 0.0 | 0.00 | 0.00 | 0.00 | 87 | 1014.9 |
| 20260507210107 | 47 | 157 | 0.0 | 0.0 | 0.00 | 0.00 | 0.00 | 87 | 1014.8 |
| 20260507204502 | 48 | 157 | 0.0 | 0.0 | 0.00 | 0.00 | 0.00 | 86 | 1014.8 |
| 20260507203111 | 48 | 157 | 0.0 | 2.0 | 0.00 | 0.00 | 0.00 | 85 | 1014.8 |
| 20260507201503 | 50 | 115 | 0.0 | 1.0 | 0.00 | 0.00 | 0.00 | 84 | 1014.8 |
| 20260507200111 | 50 | 53 | 0.0 | 3.0 | 0.00 | 0.00 | 0.00 | 83 | 1014.7 |
| 20260507194504 | 51 | 83 | 0.0 | 3.0 | 0.00 | 0.00 | 0.00 | 82 | 1014.5 |
| 20260507193103 | 52 | 17 | 0.0 | 0.0 | 0.00 | 0.00 | 0.00 | 82 | 1014.3 |
| 20260507191502 | 52 | 24 | 0.0 | 0.0 | 0.00 | 0.00 | 0.00 | 82 | 1014.1 |
| 20260507190005 | 53 | 24 | 0.0 | 0.0 | 0.00 | 0.00 | 0.00 | 81 | 1014.0 |
| 20260507184603 | 53 | 302 | 0.0 | 3.0 | 0.00 | 0.00 | 0.00 | 80 | 1013.8 |
| 20260507183009 | 54 | 360 | 0.0 | 0.0 | 0.00 | 0.00 | 0.00 | 78 | 1013.7 |
| 20260507181605 | 54 | 360 | 0.0 | 1.0 | 0.00 | 0.00 | 0.00 | 76 | 1013.5 |
| 20260507180006 | 54 | 93 | 0.0 | 0.0 | 0.00 | 0.00 | 0.00 | 75 | 1013.5 |
| 20260507174605 | 55 | 360 | 0.0 | 0.0 | 0.00 | 0.00 | 0.00 | 75 | 1013.4 |
| 20260507173005 | 55 | 96 | 0.0 | 0.0 | 0.00 | 0.00 | 0.00 | 73 | 1013.3 |
| 20260507171606 | 54 | 94 | 0.0 | 0.0 | 0.00 | 0.00 | 0.00 | 72 | 1013.3 |
| 20260507170003 | 55 | 96 | 0.0 | 0.0 | 0.00 | 0.00 | 0.00 | 74 | 1013.2 |
| 20260507164607 | 55 | 360 | 0.0 | 3.0 | 0.00 | 0.13 | 0.00 | 73 | 1013.2 |
| 20260507163002 | 56 | 360 | 1.0 | 3.0 | 0.00 | 0.13 | 0.00 | 72 | 1013.2 |
| 20260507161604 | 55 | 360 | 0.0 | 2.0 | 0.00 | 0.13 | 0.00 | 71 | 1013.2 |
| 20260507160001 | 56 | 313 | 3.0 | 6.0 | 0.00 | 0.13 | 0.00 | 70 | 1013.3 |
| 20260507153002 | 56 | 360 | 4.0 | 9.0 | 0.00 | 0.13 | 0.00 | 68 | 1013.0 |
| 20260507151602 | 56 | 44 | 3.0 | 8.0 | 0.00 | 0.13 | 0.00 | 68 | 1012.8 |
| 20260507150006 | 56 | 360 | 5.0 | 9.0 | 0.00 | 0.13 | 0.00 | 67 | 1012.9 |
| 20260507144506 | 56 | 339 | 5.0 | 13.0 | 0.00 | 0.13 | 0.00 | 67 | 1012.9 |
| 20260507143114 | 56 | 339 | 5.0 | 8.0 | 0.00 | 0.13 | 0.00 | 66 | 1013.0 |
| 20260507141502 | 56 | 325 | 5.0 | 10.0 | 0.00 | 0.13 | 0.00 | 64 | 1012.9 |
| 20260507134502 | 57 | 350 | 4.0 | 9.0 | 0.00 | 0.13 | 0.00 | 63 | 1012.9 |
| 20260507133134 | 58 | 330 | 3.0 | 8.0 | 0.00 | 0.13 | 0.00 | 59 | 1013.0 |
| 20260507131503 | 58 | 271 | 0.0 | 8.0 | 0.00 | 0.13 | 0.00 | 59 | 1013.0 |
| 20260507130110 | 57 | 309 | 3.0 | 8.0 | 0.00 | 0.13 | 0.00 | 60 | 1012.9 |
| 20260507124504 | 57 | 360 | 6.0 | 13.0 | 0.00 | 0.28 | 0.00 | 64 | 1012.9 |
| 20260507123102 | 57 | 342 | 5.0 | 11.0 | 0.00 | 0.28 | 0.00 | 64 | 1012.8 |
| 20260507121503 | 57 | 12 | 5.0 | 11.0 | 0.00 | 0.28 | 0.00 | 64 | 1012.6 |
| 20260507120110 | 57 | 13 | 6.0 | 9.0 | 0.00 | 0.28 | 0.00 | 65 | 1012.6 |
| 20260507114503 | 58 | 350 | 7.0 | 11.0 | 0.00 | 0.28 | 0.00 | 63 | 1012.8 |
| 20260507113104 | 58 | 360 | 3.0 | 8.0 | 0.00 | 0.28 | 0.00 | 62 | 1012.7 |
| 20260507111503 | 56 | 30 | 4.0 | 11.0 | 0.00 | 0.28 | 0.00 | 64 | 1012.8 |
| 20260507110103 | 58 | 85 | 7.0 | 11.0 | 0.00 | 0.28 | 0.00 | 62 | 1012.9 |
| 20260507104503 | 58 | 13 | 3.0 | 6.0 | 0.00 | 0.28 | 0.00 | 63 | 1013.0 |
| 20260507103102 | 57 | 122 | 3.0 | 8.0 | 0.00 | 0.28 | 0.00 | 61 | 1013.1 |
| 20260507101614 | 57 | 109 | 2.0 | 5.0 | 0.00 | 0.28 | 0.00 | 60 | 1013.2 |
| 20260507100002 | 57 | 88 | 2.0 | 7.0 | 0.00 | 0.28 | 0.00 | 60 | 1013.2 |
| 20260507094606 | 56 | 174 | 0.0 | 8.0 | 0.00 | 0.28 | 0.00 | 62 | 1013.3 |